Regional Weather Roundup
Issued by NWS

Home | Current Version | Previous Version | Graphics & Text | Print | Product List | Glossary On
Versions: 1 2 3 4 5 6 7 8 9 10 11 12 13 14 15 16 17 18 19 20 21 22 23 24 25 26 27 28 29 30 31 32 33 34 35 36 37 38 39 40 41 42 43 44 45 46 47 48 49 50
000
ASUS43 KLOT 281008
RWRIL

ILLINOIS REGIONAL WEATHER ROUNDUP
NATIONAL WEATHER SERVICE CHICAGO/ROMEOVILLE IL
500 AM CDT SAT MAR 28 2015

NOTE: "FAIR" INDICATES FEW OR NO CLOUDS BELOW 12,000 FEET WITH NO
SIGNIFICANT WEATHER AND/OR OBSTRUCTIONS TO VISIBILITY.

* THESE STATIONS ARE NOT UNDER NWS QUALITY CONTROL. THEY ALSO MAY NOT
  REPORT WEATHER SUCH AS PRECIPITATION OR FOG.

ILZ001-002-007-009-015-016-024-281100-
NORTHWEST ILLINOIS

CITY           SKY/WX    TMP DP  RH WIND       PRES   REMARKS
MOLINE         CLEAR     20  13  74 E7        30.24R WCI  11
STERLING*      CLEAR     19  16  86 CALM      30.24R
SAVANNA*       CLEAR     22  15  75 CALM      30.25R
$$

ILZ003-004-008-010-011-017-018-281100-
NORTH CENTRAL ILLINOIS

CITY           SKY/WX    TMP DP  RH WIND       PRES   REMARKS
ROCKFORD       CLEAR     17  11  77 CALM      30.26R
FREEPORT*      CLEAR     15  12  90 CALM      30.26R
ROCHELLE*      CLEAR     18  15  87 CALM      30.25R
DE KALB*       CLEAR     18  13  80 N3        30.23R
PERU*          PTCLDY    19  15  84 CALM      30.25R
$$

ILZ005-006-012>014-019>023-281100-
NORTHEAST ILLINOIS

CITY           SKY/WX    TMP DP  RH WIND       PRES   REMARKS
CHICAGO-OHARE  CLEAR     21  13  71 N5        30.23R WCI  15
CHICAGO-MIDWAY CLEAR     22  13  68 NW3       30.24R
AURORA         CLEAR     16  11  80 NW6       30.24R WCI   7
LANSING*       CLEAR     23  10  57 CALM      30.24R
JOLIET*        CLEAR     20  16  81 N3        30.24S
WAUKEGAN       FAIR      16  13  88 NW3       30.24R
DUPAGE AIRPORT CLEAR     14  11  87 N5        30.23R WCI   6
KANKAKEE*      CLEAR     22  17  81 N5        30.24R WCI  15
WHEELING       CLEAR     19  13  77 CALM      30.25R
MORRIS*        CLEAR     19  14  79 NW3       30.24R
ROMEOVILLE*    CLEAR     18  13  80 CALM      30.24R
NORTHERLY ISL    N/A     25  12  58 NE10        N/A  WCI  15
$$

LMZ740>746-281100-
SOUTHERN LAKE MICHIGAN

STATION/POSITION SKY/WX   TEMP    WIND        PRES    VSBY  WAVE
                          AIR SEA DIR/SP/G                  HT/PER
                          (F)     (DEG/KT/KT) (MB)    (MI)  (FT/S)
HARRISON CRIB              25      20/ 12/ 15   N/A
BURNHAM HARBOR             25     340/  7/ 13   N/A
CALUMET HARBOR             25     360/ 10/ 13 1022.2R
BURNS HARBOR               24      50/ 11/ 13 1023.7R
MICHIGAN CITY              20      60/  7/  9   N/A
$$

ILZ025>027-034>036-040-047-049-050-058-095>099-281100-
WEST-CENTRAL ILLINOIS

CITY           SKY/WX    TMP DP  RH WIND       PRES   REMARKS
QUINCY         PTCLDY    26  15  63 SE6       30.20R WCI  19
GALESBURG*     PTCLDY    21  16  81 SE5       30.23R WCI  15
MACOMB*        PTCLDY    23  19  84 E7        30.25R WCI  14
JACKSONVILLE*  CLEAR     25  20  81 E6        30.22R WCI  18
PITTSFIELD*    CLEAR     27  19  71 E3        30.22R
$$

ILZ028>032-037-038-041>044-048-051>054-059>061-281100-
CENTRAL ILLINOIS

CITY           SKY/WX    TMP DP  RH WIND       PRES   REMARKS
PONTIAC        CLEAR     20  17  89 NW5       30.24S WCI  13
BLOOMINGTON    CLEAR     19  15  84 CALM      30.23R
DECATUR        CLEAR     20  15  81 CALM      30.23R
PEORIA         PTCLDY    23  13  65 E6        30.24R WCI  16
LACON*         PTCLDY    18  15  88 CALM      30.24S
LINCOLN*       CLEAR     22  18  86 CALM      30.25R
SPRINGFIELD    CLEAR     24  18  77 E6        30.23R WCI  17
TAYLORVILLE    CLEAR     25  19  80 E7        30.23R WCI  17
$$

ILZ033-039-045-046-055>057-062-063-281100-
EAST-CENTRAL ILLINOIS

CITY           SKY/WX    TMP DP  RH WIND       PRES   REMARKS
CHAMPAIGN      CLEAR     20  14  77 N3        30.22R
DANVILLE*      CLEAR     17  14  89 NW3       30.20R
RANTOUL*       CLEAR     21  18  88 N5        30.22R WCI  14
MATTOON        CLEAR     21  14  74 NE7       30.21R WCI  12
PARIS*         CLEAR     21  17  85 CALM      30.23R
$$

ILZ079-100>102-281100-
SOUTHWEST ILLINOIS

CITY           SKY/WX    TMP DP  RH WIND       PRES   REMARKS
ALTON          PTCLDY    28  23  82 CALM      30.22R
BELLEVILLE     CLEAR     26  21  81 CALM      30.20S
CAHOKIA*       PTCLDY    28  22  78 CALM      30.21S
SPARTA*        PTCLDY    26  22  84 CALM      30.21S
$$

ILZ064>066-069>071-074>076-080>082-084>086-088>090-092>094-281100-
SOUTH-CENTRAL ILLINOIS

CITY           SKY/WX    TMP DP  RH WIND       PRES   REMARKS
CARBONDALE     PTCLDY    26  21  81 CALM      30.21R
CAIRO*         CLEAR     30  25  82 NE5       30.20R WCI  25
EFFINGHAM*     CLEAR     24  15  68 CALM      30.24R
MARION         CLEAR     25  23  93 CALM      30.21S
MT. VERNON     CLEAR     21  16  79 N3        30.21R
CENTRALIA*     PTCLDY    25  20  83 E3        30.21R
SALEM*         CLEAR     28  21  75 E5        30.22R WCI  23
METROPOLIS*    CLEAR     26  24  94 CALM      30.20R
$$

ILZ067-068-072-073-078-083-087-091-281100-
SOUTHEAST ILLINOIS

CITY           SKY/WX    TMP DP  RH WIND       PRES   REMARKS
LAWRENCEVILLE  CLEAR     24  15  68 N6        30.23R WCI  17
FLORA*         CLEAR     25  19  80 NE5       30.23R WCI  19
FAIRFIELD*     CLEAR     25  19  78 NE3       30.22R
HARRISBURG*    CLEAR     25  21  84 N3        30.22S
ROBINSON*      CLEAR     22  17  79 N6        30.24R WCI  15
CARMI*         CLEAR     26  19  77 N7        30.21R WCI  18
$$

ABBREVIATIONS USED IN REMARKS
   TC - TEMPERATURE IN CELSIUS
  WCI - WIND CHILL INDEX
   HX - HEAT INDEX
  VSB - VISIBILITY
$$




USA.gov is the U.S. government's official web portal to all federal, state and local government web resources and services.